Voltar ao catálogo

STARLINK-1327

AtivoComunicaçõesVLEO
NORAD 45555·PAYLOAD·🇺🇸 United States

Lançado Apr 22, 2020 de Cape Canaveral Space Force Station

Loading…

Próximas Passagens (próximas 24 horas)

TLE

AtualizadoSource: CelesTrak SupGP

Época: Sep 14, 2026, 13:13 UTC

1 45555C 20025AA  26257.55118056  .00073014  00000+0  27600-3 0  2575
2 45555  53.0327 212.8506 0005887  62.3924 340.5360 15.86913457    15

Acompanhe STARLINK-1327 em tempo real com AllMySat

Download on the App Store